TimeCDT,TemperatureF,Dew PointF,Humidity,Sea Level PressureIn,VisibilityMPH,Wind Direction,Wind SpeedMPH,Gust SpeedMPH,PrecipitationIn,Events,Conditions,WindDirDegrees,DateUTC
12:15 AM,35.8,30.4,81,30.30,10.0,East,3.5,-,N/A,,Clear,80,2012-10-30 05:15:00
12:35 AM,34.5,30.7,86,30.30,10.0,ENE,4.6,-,N/A,,Clear,70,2012-10-30 05:35:00
12:55 AM,34.2,31.5,90,30.30,10.0,ENE,3.5,-,N/A,,Clear,70,2012-10-30 05:55:00
1:15 AM,34.3,31.8,90,30.30,10.0,Calm,Calm,-,N/A,,Clear,0,2012-10-30 06:15:00
1:35 AM,33.8,31.5,91,30.30,10.0,Calm,Calm,-,N/A,,Clear,0,2012-10-30 06:35:00
1:55 AM,28.8,26.6,92,30.30,10.0,East,3.5,-,N/A,,Clear,90,2012-10-30 06:55:00
2:35 AM,27.7,26.1,94,30.30,10.0,Calm,Calm,-,N/A,,Clear,0,2012-10-30 07:35:00
2:55 AM,26.2,25.9,99,30.29,10.0,Calm,Calm,-,N/A,,Clear,0,2012-10-30 07:55:00
3:15 AM,21.9,20.3,93,30.29,10.0,Calm,Calm,-,N/A,,Clear,0,2012-10-30 08:15:00
3:55 AM,25.3,23.9,94,30.29,10.0,Calm,Calm,-,N/A,,Overcast,0,2012-10-30 08:55:00
4:15 AM,25.0,23.9,96,30.28,10.0,Calm,Calm,-,N/A,,Overcast,0,2012-10-30 09:15:00
4:35 AM,25.7,24.6,96,30.28,10.0,Calm,Calm,-,N/A,,Overcast,0,2012-10-30 09:35:00
4:55 AM,27.7,26.4,95,30.27,10.0,Calm,Calm,-,N/A,,Overcast,0,2012-10-30 09:55:00
5:15 AM,28.4,27.0,94,30.27,10.0,Calm,Calm,-,N/A,,Overcast,0,2012-10-30 10:15:00
5:35 AM,29.1,27.9,95,30.27,10.0,Calm,Calm,-,N/A,,Overcast,0,2012-10-30 10:35:00
5:55 AM,30.0,28.6,94,30.27,10.0,Calm,Calm,-,N/A,,Overcast,0,2012-10-30 10:55:00
6:15 AM,30.0,28.6,94,30.26,10.0,Calm,Calm,-,N/A,,Overcast,0,2012-10-30 11:15:00
6:35 AM,36.5,35.6,97,30.26,10.0,ENE,6.9,-,N/A,,Overcast,60,2012-10-30 11:35:00
6:55 AM,35.2,33.1,92,30.26,10.0,East,6.9,-,N/A,,Overcast,100,2012-10-30 11:55:00
7:15 AM,35.6,33.1,91,30.26,10.0,ESE,3.5,-,N/A,,Overcast,110,2012-10-30 12:15:00
7:35 AM,36.7,33.3,87,30.26,10.0,ENE,10.4,-,N/A,,Overcast,70,2012-10-30 12:35:00
7:55 AM,37.6,32.4,81,30.26,10.0,ENE,10.4,17.3,N/A,,Overcast,70,2012-10-30 12:55:00
8:15 AM,37.6,32.2,81,30.26,10.0,ENE,12.7,17.3,N/A,,Overcast,70,2012-10-30 13:15:00
8:35 AM,37.4,32.9,84,30.27,10.0,NE,8.1,18.4,N/A,,Overcast,50,2012-10-30 13:35:00
8:55 AM,36.0,32.5,87,30.27,10.0,NE,6.9,-,N/A,,Mostly Cloudy,40,2012-10-30 13:55:00
9:15 AM,36.7,32.0,83,30.26,10.0,NE,9.2,-,N/A,,Scattered Clouds,50,2012-10-30 14:15:00
9:55 AM,37.6,29.8,74,30.26,10.0,NE,11.5,-,N/A,,Clear,40,2012-10-30 14:55:00
10:15 AM,37.8,29.1,71,30.27,10.0,NE,10.4,-,N/A,,Clear,50,2012-10-30 15:15:00
10:35 AM,38.3,28.8,69,30.26,10.0,NE,11.5,19.6,N/A,,Clear,50,2012-10-30 15:35:00
10:55 AM,38.8,27.9,65,30.26,10.0,NE,11.5,20.7,N/A,,Clear,40,2012-10-30 15:55:00
11:15 AM,38.8,27.3,63,30.26,10.0,NE,15.0,19.6,N/A,,Clear,50,2012-10-30 16:15:00
11:35 AM,39.0,26.1,60,30.26,10.0,ENE,13.8,21.9,N/A,,Clear,60,2012-10-30 16:35:00
11:55 AM,39.4,25.7,58,30.25,10.0,ENE,12.7,20.7,N/A,,Clear,60,2012-10-30 16:55:00
12:15 PM,40.1,24.3,53,30.24,10.0,ENE,9.2,19.6,N/A,,Clear,60,2012-10-30 17:15:00
12:35 PM,39.9,23.5,52,30.24,10.0,NE,13.8,20.7,N/A,,Clear,50,2012-10-30 17:35:00
12:55 PM,40.1,21.4,47,30.23,10.0,ENE,9.2,21.9,N/A,,Clear,60,2012-10-30 17:55:00
1:15 PM,40.3,20.1,45,30.22,10.0,ENE,16.1,21.9,N/A,,Clear,60,2012-10-30 18:15:00
1:35 PM,40.3,19.9,44,30.21,10.0,ENE,13.8,21.9,N/A,,Clear,70,2012-10-30 18:35:00
1:55 PM,41.0,20.7,44,30.21,10.0,ENE,16.1,20.7,N/A,,Clear,70,2012-10-30 18:55:00
2:15 PM,39.9,19.2,43,30.20,10.0,NE,12.7,19.6,N/A,,Clear,50,2012-10-30 19:15:00
2:35 PM,40.6,18.7,41,30.19,10.0,ENE,13.8,19.6,N/A,,Clear,70,2012-10-30 19:35:00
2:55 PM,40.5,19.4,43,30.19,10.0,ENE,13.8,18.4,N/A,,Clear,60,2012-10-30 19:55:00
3:15 PM,40.1,19.4,43,30.19,10.0,ENE,13.8,18.4,N/A,,Clear,60,2012-10-30 20:15:00
3:35 PM,40.1,19.4,43,30.18,10.0,East,12.7,-,N/A,,Clear,90,2012-10-30 20:35:00
3:55 PM,39.6,19.9,45,30.18,10.0,ENE,9.2,17.3,N/A,,Clear,70,2012-10-30 20:55:00
4:15 PM,39.2,20.5,47,30.17,10.0,East,9.2,-,N/A,,Clear,90,2012-10-30 21:15:00
4:35 PM,38.8,21.7,50,30.16,10.0,ENE,9.2,-,N/A,,Clear,60,2012-10-30 21:35:00
4:55 PM,38.5,21.4,50,30.15,10.0,East,5.8,-,N/A,,Clear,80,2012-10-30 21:55:00
5:15 PM,37.6,21.2,52,30.15,10.0,ENE,6.9,-,N/A,,Clear,60,2012-10-30 22:15:00
5:35 PM,36.3,21.6,55,30.14,10.0,NE,4.6,-,N/A,,Clear,50,2012-10-30 22:35:00
5:55 PM,34.9,21.2,57,30.14,10.0,NE,4.6,-,N/A,,Clear,40,2012-10-30 22:55:00
6:15 PM,33.6,20.8,59,30.15,10.0,NE,3.5,-,N/A,,Clear,40,2012-10-30 23:15:00
6:35 PM,33.4,20.7,59,30.15,10.0,NE,4.6,-,N/A,,Clear,40,2012-10-30 23:35:00
6:55 PM,34.0,21.6,60,30.14,10.0,NE,4.6,-,N/A,,Clear,50,2012-10-30 23:55:00
7:15 PM,33.1,21.6,63,30.13,10.0,NE,4.6,-,N/A,,Clear,40,2012-10-31 00:15:00
7:35 PM,33.3,21.7,63,30.13,10.0,NNE,3.5,-,N/A,,Clear,30,2012-10-31 00:35:00
7:55 PM,32.7,22.3,65,30.12,10.0,NNE,3.5,-,N/A,,Clear,20,2012-10-31 00:55:00
8:15 PM,32.4,23.2,69,30.12,10.0,North,4.6,-,N/A,,Clear,10,2012-10-31 01:15:00
8:35 PM,30.4,22.8,73,30.12,10.0,North,4.6,-,N/A,,Clear,350,2012-10-31 01:35:00
8:55 PM,29.3,22.5,76,30.11,10.0,North,4.6,-,N/A,,Clear,360,2012-10-31 01:55:00
9:15 PM,27.9,22.1,79,30.11,10.0,NNW,4.6,-,N/A,,Clear,340,2012-10-31 02:15:00
9:35 PM,27.3,20.8,77,30.11,10.0,North,5.8,-,N/A,,Clear,10,2012-10-31 02:35:00
9:55 PM,29.7,21.2,71,30.11,10.0,North,3.5,-,N/A,,Clear,350,2012-10-31 02:55:00
10:15 PM,31.5,20.7,64,30.11,10.0,NNE,5.8,-,N/A,,Clear,30,2012-10-31 03:15:00
10:35 PM,32.7,20.5,61,30.09,10.0,NE,5.8,-,N/A,,Clear,40,2012-10-31 03:35:00
10:55 PM,32.2,20.3,62,30.09,10.0,NE,5.8,-,N/A,,Clear,50,2012-10-31 03:55:00
11:15 PM,32.4,21.0,63,30.08,10.0,NE,10.4,-,N/A,,Clear,50,2012-10-31 04:15:00
11:35 PM,33.1,20.3,59,30.07,10.0,NE,8.1,-,N/A,,Clear,40,2012-10-31 04:35:00
11:55 PM,32.9,20.3,60,30.08,10.0,NE,9.2,-,N/A,,Clear,40,2012-10-31 04:55:00